| time (UTC) | temp C | wind direction | speed KPH | gust KPH | rain 1hr cm | rain 24hr cm | rain mn cm | humidity % | barometer mb |
| 20260507083026 | 5 | 217 | 1.6 | 6.4 | 0.00 | 0.00 | 0.00 | 68 | 1012.7 |
| 20260507081521 | 5 | 165 | 1.6 | 6.4 | 0.00 | 0.00 | 0.00 | 68 | 1012.8 |
| 20260507080018 | 5 | 219 | 1.6 | 6.4 | 0.00 | 0.00 | 0.00 | 70 | 1013.0 |
| 20260507074524 | 4 | 182 | 0.0 | 1.6 | 0.00 | 0.00 | 0.00 | 69 | 1013.3 |
| 20260507073027 | 5 | 216 | 0.0 | 3.2 | 0.00 | 0.00 | 0.00 | 64 | 1013.5 |
| 20260507071527 | 5 | 232 | 0.0 | 3.2 | 0.00 | 0.00 | 0.00 | 62 | 1013.7 |
| 20260507070019 | 5 | 231 | 1.6 | 3.2 | 0.00 | 0.00 | 0.00 | 63 | 1013.7 |
| 20260507064519 | 6 | 211 | 0.0 | 1.6 | 0.00 | 0.00 | 0.00 | 59 | 1013.9 |
| 20260507063024 | 6 | 219 | 1.6 | 4.8 | 0.00 | 0.00 | 0.00 | 57 | 1014.0 |
| 20260507061526 | 6 | 211 | 1.6 | 6.4 | 0.00 | 0.00 | 0.00 | 56 | 1014.2 |
| 20260507060040 | 5 | 209 | 1.6 | 4.8 | 0.00 | 0.00 | 0.00 | 58 | 1014.3 |
| 20260507054514 | 2 | 266 | 0.0 | 4.8 | 0.00 | 0.00 | 0.00 | 76 | 1014.4 |
| 20260507053020 | 1 | 332 | 0.0 | 1.6 | 0.00 | 0.00 | 0.00 | 77 | 1014.3 |
| 20260507051522 | 1 | 282 | 0.0 | 0.0 | 0.00 | 0.00 | 0.00 | 76 | 1014.4 |
| 20260507050009 | 1 | 282 | 0.0 | 0.0 | 0.00 | 0.00 | 0.00 | 80 | 1014.6 |
| 20260507044529 | 1 | 282 | 0.0 | 0.0 | 0.00 | 0.00 | 0.00 | 80 | 1014.7 |
| 20260507043016 | 1 | 282 | 0.0 | 0.0 | 0.00 | 0.00 | 0.00 | 78 | 1014.8 |
| 20260507041518 | 1 | 282 | 0.0 | 0.0 | 0.00 | 0.00 | 0.00 | 76 | 1014.9 |
| 20260507040031 | 2 | 282 | 0.0 | 0.0 | 0.00 | 0.00 | 0.00 | 75 | 1015.1 |
| 20260507034525 | 2 | 282 | 0.0 | 0.0 | 0.00 | 0.00 | 0.00 | 74 | 1015.3 |
| 20260507033014 | 2 | 282 | 0.0 | 0.0 | 0.00 | 0.00 | 0.00 | 74 | 1015.3 |
| 20260507031517 | 3 | 282 | 0.0 | 0.0 | 0.00 | 0.00 | 0.00 | 70 | 1015.4 |
| 20260507030023 | 3 | 282 | 0.0 | 0.0 | 0.00 | 0.00 | 0.00 | 71 | 1015.4 |
| 20260507024524 | 3 | 282 | 0.0 | 0.0 | 0.00 | 0.00 | 0.00 | 67 | 1015.2 |
| 20260507023025 | 5 | 282 | 0.0 | 0.0 | 0.00 | 0.00 | 0.00 | 68 | 1015.1 |
| 20260507021519 | 5 | 282 | 0.0 | 0.0 | 0.00 | 0.00 | 0.00 | 63 | 1014.9 |
| 20260507020019 | 6 | 282 | 0.0 | 0.0 | 0.00 | 0.00 | 0.00 | 58 | 1014.8 |
| 20260507014521 | 7 | 282 | 0.0 | 0.0 | 0.00 | 0.00 | 0.00 | 54 | 1014.8 |
| 20260507013030 | 9 | 282 | 0.0 | 0.0 | 0.00 | 0.00 | 0.00 | 49 | 1015.0 |
| 20260507011526 | 11 | 282 | 0.0 | 0.0 | 0.00 | 0.00 | 0.00 | 42 | 1014.9 |
| 20260507010020 | 12 | 282 | 0.0 | 1.6 | 0.00 | 0.00 | 0.00 | 34 | 1014.9 |
| 20260507004524 | 12 | 297 | 0.0 | 1.6 | 0.00 | 0.00 | 0.00 | 30 | 1014.9 |
| 20260507003028 | 13 | 308 | 1.6 | 4.8 | 0.00 | 0.00 | 0.00 | 29 | 1015.0 |
| 20260507001534 | 13 | 295 | 1.6 | 6.4 | 0.00 | 0.00 | 0.00 | 30 | 1015.1 |
| 20260507000028 | 13 | 300 | 1.6 | 4.8 | 0.00 | 0.00 | 0.00 | 29 | 1015.2 |
| 20260506234514 | 13 | 302 | 0.0 | 8.0 | 0.00 | 0.00 | 0.00 | 30 | 1015.3 |
| 20260506233022 | 14 | 299 | 1.6 | 9.7 | 0.00 | 0.00 | 0.00 | 29 | 1015.4 |
| 20260506231527 | 14 | 268 | 4.8 | 12.9 | 0.00 | 0.00 | 0.00 | 28 | 1015.5 |
| 20260506230025 | 14 | 228 | 1.6 | 11.3 | 0.00 | 0.00 | 0.00 | 27 | 1015.6 |
| 20260506224512 | 14 | 229 | 1.6 | 6.4 | 0.00 | 0.00 | 0.00 | 31 | 1015.7 |
| 20260506223018 | 14 | 296 | 3.2 | 11.3 | 0.00 | 0.00 | 0.00 | 29 | 1015.7 |
| 20260506221519 | 14 | 241 | 4.8 | 14.5 | 0.00 | 0.00 | 0.00 | 28 | 1015.9 |
| 20260506220026 | 14 | 6 | 3.2 | 9.7 | 0.00 | 0.00 | 0.00 | 30 | 1016.0 |
| 20260506214525 | 13 | 295 | 0.0 | 14.5 | 0.00 | 0.00 | 0.00 | 29 | 1016.1 |
| 20260506213014 | 14 | 318 | 1.6 | 6.4 | 0.00 | 0.00 | 0.00 | 29 | 1016.3 |
| 20260506211519 | 15 | 51 | 1.6 | 12.9 | 0.00 | 0.00 | 0.00 | 26 | 1016.3 |
| 20260506210024 | 14 | 310 | 1.6 | 14.5 | 0.00 | 0.00 | 0.00 | 31 | 1016.6 |
| 20260506204524 | 14 | 336 | 4.8 | 9.7 | 0.00 | 0.00 | 0.00 | 27 | 1016.7 |
| 20260506203031 | 14 | 39 | 1.6 | 8.0 | 0.00 | 0.00 | 0.00 | 30 | 1016.8 |
| 20260506201515 | 14 | 82 | 3.2 | 9.7 | 0.00 | 0.00 | 0.00 | 30 | 1017.0 |
| 20260506200020 | 13 | 286 | 4.8 | 11.3 | 0.00 | 0.00 | 0.00 | 31 | 1017.1 |
| 20260506194522 | 12 | 321 | 4.8 | 14.5 | 0.00 | 0.00 | 0.00 | 30 | 1017.2 |
| 20260506193025 | 13 | 294 | 8.0 | 14.5 | 0.00 | 0.00 | 0.00 | 30 | 1017.4 |
| 20260506191528 | 14 | 298 | 3.2 | 14.5 | 0.00 | 0.00 | 0.00 | 31 | 1017.4 |
| 20260506190017 | 13 | 292 | 3.2 | 16.1 | 0.00 | 0.00 | 0.00 | 31 | 1017.5 |
| 20260506184526 | 13 | 315 | 3.2 | 17.7 | 0.00 | 0.00 | 0.00 | 34 | 1017.6 |
| 20260506183024 | 13 | 100 | 3.2 | 12.9 | 0.00 | 0.00 | 0.00 | 34 | 1017.8 |
| 20260506181530 | 13 | 25 | 4.8 | 14.5 | 0.00 | 0.00 | 0.00 | 33 | 1017.9 |
| 20260506180031 | 13 | 301 | 3.2 | 17.7 | 0.00 | 0.00 | 0.00 | 37 | 1018.2 |
| 20260506174518 | 13 | 312 | 6.4 | 12.9 | 0.00 | 0.00 | 0.00 | 35 | 1018.5 |
| 20260506173023 | 12 | 331 | 3.2 | 16.1 | 0.00 | 0.00 | 0.00 | 34 | 1018.5 |
| 20260506171525 | 12 | 324 | 6.4 | 17.7 | 0.00 | 0.00 | 0.00 | 35 | 1018.7 |
| 20260506170035 | 11 | 1 | 4.8 | 14.5 | 0.00 | 0.00 | 0.00 | 38 | 1018.8 |
| 20260506164532 | 11 | 214 | 1.6 | 12.9 | 0.00 | 0.00 | 0.00 | 41 | 1018.9 |
| 20260506163020 | 11 | 293 | 3.2 | 6.4 | 0.00 | 0.00 | 0.00 | 36 | 1018.7 |
| 20260506161524 | 11 | 299 | 4.8 | 14.5 | 0.00 | 0.00 | 0.00 | 39 | 1018.7 |
| 20260506160026 | 11 | 307 | 4.8 | 14.5 | 0.00 | 0.00 | 0.00 | 37 | 1018.7 |
| 20260506154529 | 11 | 343 | 6.4 | 12.9 | 0.00 | 0.00 | 0.00 | 37 | 1018.8 |
| 20260506153026 | 10 | 335 | 3.2 | 11.3 | 0.00 | 0.00 | 0.00 | 40 | 1018.7 |
| 20260506151534 | 10 | 53 | 4.8 | 8.0 | 0.00 | 0.00 | 0.00 | 39 | 1018.7 |
| 20260506150022 | 10 | 293 | 3.2 | 9.7 | 0.00 | 0.00 | 0.00 | 42 | 1018.8 |
| 20260506144525 | 10 | 319 | 8.0 | 12.9 | 0.00 | 0.00 | 0.00 | 40 | 1018.8 |
| 20260506143028 | 9 | 291 | 1.6 | 6.4 | 0.00 | 0.00 | 0.00 | 46 | 1018.7 |
| 20260506141528 | 8 | 295 | 4.8 | 11.3 | 0.00 | 0.00 | 0.00 | 43 | 1018.7 |
| 20260506140004 | 8 | 236 | 1.6 | 9.7 | 0.00 | 0.00 | 0.00 | 48 | 1018.6 |
| 20260506134504 | 7 | 304 | 3.2 | 8.0 | 0.00 | 0.00 | 0.00 | 47 | 1018.4 |
| 20260506133013 | 7 | 309 | 1.6 | 4.8 | 0.00 | 0.00 | 0.00 | 48 | 1018.4 |
| 20260506131517 | 7 | 289 | 1.6 | 6.4 | 0.00 | 0.00 | 0.00 | 53 | 1018.3 |
| 20260506130018 | 6 | 264 | 1.6 | 4.8 | 0.00 | 0.00 | 0.00 | 54 | 1018.4 |
| 20260506124503 | 6 | 274 | 0.0 | 1.6 | 0.00 | 0.00 | 0.00 | 58 | 1018.3 |
| 20260506123006 | 5 | 282 | 0.0 | 1.6 | 0.00 | 0.00 | 0.00 | 60 | 1018.0 |
| 20260506121508 | 3 | 279 | 0.0 | 0.0 | 0.00 | 0.00 | 0.00 | 68 | 1017.7 |
| 20260506120023 | 1 | 279 | 0.0 | 0.0 | 0.00 | 0.00 | 0.00 | 78 | 1017.5 |
| 20260506114518 | -1 | 279 | 0.0 | 0.0 | 0.00 | 0.00 | 0.00 | 80 | 1017.2 |
| 20260506113006 | -1 | 278 | 0.0 | 0.0 | 0.00 | 0.00 | 0.00 | 77 | 1017.1 |
| 20260506111506 | 0 | 279 | 0.0 | 0.0 | 0.00 | 0.00 | 0.00 | 76 | 1017.1 |
| 20260506110012 | 0 | 279 | 0.0 | 1.6 | 0.00 | 0.00 | 0.00 | 75 | 1017.0 |
| 20260506104515 | 0 | 279 | 0.0 | 0.0 | 0.00 | 0.00 | 0.00 | 74 | 1017.0 |
| 20260506103020 | 0 | 278 | 0.0 | 0.0 | 0.00 | 0.00 | 0.00 | 69 | 1016.8 |
| 20260506101536 | 1 | 278 | 0.0 | 0.0 | 0.00 | 0.00 | 0.00 | 67 | 1016.6 |
| 20260506100010 | 2 | 279 | 0.0 | 1.6 | 0.00 | 0.00 | 0.00 | 64 | 1016.5 |
| 20260506094513 | 2 | 279 | 0.0 | 0.0 | 0.00 | 0.00 | 0.00 | 64 | 1016.5 |
| 20260506093019 | 2 | 279 | 0.0 | 1.6 | 0.00 | 0.00 | 0.00 | 64 | 1016.5 |
| 20260506091521 | 3 | 278 | 0.0 | 0.0 | 0.00 | 0.00 | 0.00 | 59 | 1016.4 |
| 20260506090024 | 3 | 279 | 0.0 | 1.6 | 0.00 | 0.00 | 0.00 | 56 | 1016.2 |
| 20260506084509 | 4 | 279 | 0.0 | 1.6 | 0.00 | 0.00 | 0.00 | 56 | 1016.1 |